{"data":{"norad_id":58357,"epoch":"2026-05-25T01:22:38.343936Z","epoch_age_seconds":67157,"freshness":"FRESH","line1":"1 58357U 23177G   26145.05738824  .00029865  00000+0  11094-2 0  9999","line2":"2 58357  43.0106 265.8303 0004074 305.3416  54.7055 15.27005593140062","mean_motion":15.27005593,"eccentricity":0.0004074,"inclination_deg":43.0106,"raan_deg":265.8303,"arg_perigee_deg":305.3416,"mean_anomaly_deg":54.7055,"bstar":0.0011094,"rev_number":14006,"period_min":94.302208623279,"perigee_km":481.97366822627,"apogee_km":487.56556453729,"semimajor_km":6862.9066163818,"source":"CELESTRAK","updated_at":"2026-05-25T13:38:18.585362Z"}}